Time,TemperatureF,DewpointF,PressureIn,WindDirection,WindDirectionDegrees,WindSpeedMPH,WindSpeedGustMPH,Humidity,HourlyPrecipIn,Conditions,Clouds,dailyrainin,SoftwareType,DateUTC
2013-03-07 00:00:00,32.7,37.8,30.08,ESE,110,0.0,9.0,95,0.00,,,0.00,meteohub,2013-03-07 05:00:00,
2013-03-07 00:05:00,32.7,37.9,30.08,East,101,1.0,7.0,95,0.00,,,0.00,meteohub,2013-03-07 05:05:00,
2013-03-07 00:10:00,32.7,37.8,30.08,SE,136,5.0,7.0,95,0.00,,,0.00,meteohub,2013-03-07 05:10:00,
2013-03-07 00:15:00,32.7,37.8,30.09,SE,124,0.0,6.0,95,0.00,,,0.00,meteohub,2013-03-07 05:15:00,
2013-03-07 00:20:00,32.5,37.8,30.09,East,94,1.0,6.0,95,0.00,,,0.00,meteohub,2013-03-07 05:20:00,
2013-03-07 00:25:00,32.5,37.6,30.09,East,80,0.0,6.0,95,0.00,,,0.00,meteohub,2013-03-07 05:25:00,
2013-03-07 00:30:00,32.5,37.6,30.09,SE,141,5.0,5.0,95,0.00,,,0.00,meteohub,2013-03-07 05:30:00,
2013-03-07 00:35:00,32.4,37.6,30.09,ESE,109,0.0,5.0,95,0.00,,,0.00,meteohub,2013-03-07 05:35:00,
2013-03-07 00:41:00,32.4,37.6,30.09,ESE,107,1.0,5.0,95,0.00,,,0.00,meteohub,2013-03-07 05:41:00,
2013-03-07 00:46:00,32.4,37.4,30.09,ENE,59,0.0,5.0,95,0.00,,,0.00,meteohub,2013-03-07 05:46:00,
2013-03-07 00:51:00,32.4,37.4,30.09,SE,134,1.0,5.0,95,0.00,,,0.00,meteohub,2013-03-07 05:51:00,
2013-03-07 00:56:00,32.4,37.4,30.09,SSE,165,1.0,5.0,95,0.00,,,0.00,meteohub,2013-03-07 05:56:00,
2013-03-07 01:01:00,32.4,37.4,30.08,ESE,123,5.0,6.0,95,0.00,,,0.00,meteohub,2013-03-07 06:01:00,
2013-03-07 01:06:00,32.4,37.4,30.08,ESE,119,0.0,10.0,95,0.00,,,0.00,meteohub,2013-03-07 06:06:00,
2013-03-07 01:11:00,32.2,37.4,30.08,SE,125,0.0,10.0,95,0.00,,,0.00,meteohub,2013-03-07 06:11:00,
2013-03-07 01:16:00,32.2,37.2,30.08,NE,53,1.0,10.0,95,0.00,,,0.00,meteohub,2013-03-07 06:16:00,
2013-03-07 01:21:00,32.0,37.2,30.07,South,170,1.0,6.0,95,0.00,,,0.00,meteohub,2013-03-07 06:21:00,
2013-03-07 01:26:00,31.8,37.0,30.08,East,91,1.0,5.0,95,0.00,,,0.00,meteohub,2013-03-07 06:26:00,
2013-03-07 01:31:00,31.8,37.0,30.07,ENE,61,0.0,6.0,95,0.00,,,0.00,meteohub,2013-03-07 06:31:00,
2013-03-07 01:36:00,31.8,37.0,30.06,SE,139,0.0,6.0,95,0.00,,,0.00,meteohub,2013-03-07 06:36:00,
2013-03-07 01:41:00,31.6,36.9,30.06,ESE,121,4.0,7.0,95,0.00,,,0.00,meteohub,2013-03-07 06:41:00,
2013-03-07 01:46:00,31.6,37.9,30.06,SE,131,2.0,7.0,95,0.00,,,0.00,meteohub,2013-03-07 06:46:00,
2013-03-07 01:51:00,31.6,38.1,30.06,East,98,0.0,7.0,95,0.00,,,0.00,meteohub,2013-03-07 06:51:00,
2013-03-07 01:56:00,31.6,37.2,30.06,ESE,118,1.0,7.0,95,0.00,,,0.00,meteohub,2013-03-07 06:56:00,
2013-03-07 02:01:00,31.6,37.0,30.06,ESE,105,5.0,7.0,95,0.00,,,0.00,meteohub,2013-03-07 07:01:00,
2013-03-07 02:06:00,31.6,37.0,30.06,SE,137,2.0,7.0,95,0.00,,,0.00,meteohub,2013-03-07 07:06:00,
2013-03-07 02:11:00,31.6,37.0,30.06,SE,128,0.0,7.0,95,0.00,,,0.00,meteohub,2013-03-07 07:11:00,
2013-03-07 02:16:00,31.6,36.9,30.05,SE,146,0.0,6.0,95,0.00,,,0.00,meteohub,2013-03-07 07:16:00,
2013-03-07 02:21:00,31.5,36.9,30.05,SE,132,1.0,6.0,94,0.00,,,0.00,meteohub,2013-03-07 07:21:00,
2013-03-07 02:26:00,31.5,36.9,30.05,SE,134,2.0,6.0,94,0.00,,,0.00,meteohub,2013-03-07 07:26:00,
2013-03-07 02:31:00,31.5,36.9,30.05,SE,138,4.0,8.0,94,0.00,,,0.00,meteohub,2013-03-07 07:31:00,
2013-03-07 02:36:00,31.5,36.9,30.05,ESE,117,2.0,8.0,94,0.00,,,0.00,meteohub,2013-03-07 07:36:00,
2013-03-07 02:41:00,31.5,36.9,30.04,SSE,153,3.0,8.0,94,0.00,,,0.00,meteohub,2013-03-07 07:41:00,
2013-03-07 02:46:00,31.5,36.9,30.04,SE,124,0.0,6.0,94,0.00,,,0.00,meteohub,2013-03-07 07:46:00,
2013-03-07 02:51:00,31.5,36.7,30.05,ESE,102,2.0,6.0,94,0.00,,,0.00,meteohub,2013-03-07 07:51:00,
2013-03-07 02:56:00,31.5,36.7,30.05,SSE,153,2.0,6.0,94,0.00,,,0.00,meteohub,2013-03-07 07:56:00,
2013-03-07 03:01:00,31.5,36.7,30.04,ESE,115,4.0,6.0,94,0.00,,,0.00,meteohub,2013-03-07 08:01:00,
2013-03-07 03:07:00,31.5,37.8,30.04,SE,146,1.0,7.0,94,0.00,,,0.00,meteohub,2013-03-07 08:07:00,
2013-03-07 03:12:00,31.5,37.8,30.04,ESE,119,0.0,10.0,94,0.00,,,0.00,meteohub,2013-03-07 08:12:00,
2013-03-07 03:17:00,31.5,37.8,30.04,East,98,0.0,10.0,94,0.00,,,0.00,meteohub,2013-03-07 08:17:00,
2013-03-07 03:22:00,31.5,36.9,30.04,East,82,1.0,8.0,93,0.00,,,0.00,meteohub,2013-03-07 08:22:00,
2013-03-07 03:27:00,31.5,36.9,30.04,SE,140,1.0,8.0,93,0.00,,,0.00,meteohub,2013-03-07 08:27:00,
2013-03-07 03:32:00,31.5,36.9,30.04,East,99,0.0,8.0,93,0.00,,,0.00,meteohub,2013-03-07 08:32:00,
2013-03-07 03:37:00,31.5,36.7,30.04,East,96,2.0,8.0,93,0.00,,,0.00,meteohub,2013-03-07 08:37:00,
2013-03-07 03:42:00,31.5,36.7,30.05,East,101,1.0,6.0,93,0.00,,,0.00,meteohub,2013-03-07 08:42:00,
2013-03-07 03:47:00,31.5,37.8,30.05,ENE,78,1.0,6.0,93,0.00,,,0.00,meteohub,2013-03-07 08:47:00,
2013-03-07 03:52:00,31.5,37.8,30.05,ESE,113,0.0,6.0,93,0.00,,,0.00,meteohub,2013-03-07 08:52:00,
2013-03-07 03:57:00,31.5,37.8,30.05,East,99,1.0,8.0,93,0.00,,,0.00,meteohub,2013-03-07 08:57:00,
2013-03-07 04:02:00,31.3,37.8,30.05,SE,133,0.0,8.0,93,0.00,,,0.00,meteohub,2013-03-07 09:02:00,
2013-03-07 04:07:00,31.3,37.8,30.05,SE,124,2.0,8.0,93,0.00,,,0.00,meteohub,2013-03-07 09:07:00,
2013-03-07 04:12:00,31.3,37.8,30.05,East,87,2.0,9.0,93,0.00,,,0.00,meteohub,2013-03-07 09:12:00,
2013-03-07 04:17:00,31.3,37.6,30.05,South,169,4.0,10.0,93,0.00,,,0.00,meteohub,2013-03-07 09:17:00,
2013-03-07 04:22:00,31.3,37.6,30.05,ESE,119,6.0,10.0,93,0.00,,,0.00,meteohub,2013-03-07 09:22:00,
2013-03-07 04:27:00,31.1,37.8,30.04,SE,128,1.0,8.0,93,0.00,,,0.00,meteohub,2013-03-07 09:27:00,
2013-03-07 04:32:00,30.9,37.8,30.05,SE,137,4.0,8.0,93,0.00,,,0.00,meteohub,2013-03-07 09:32:00,
2013-03-07 04:37:00,30.9,37.8,30.05,SE,132,1.0,8.0,93,0.00,,,0.00,meteohub,2013-03-07 09:37:00,
2013-03-07 04:42:00,30.9,37.6,30.05,SE,134,1.0,6.0,93,0.00,,,0.00,meteohub,2013-03-07 09:42:00,
2013-03-07 04:48:00,30.7,37.6,30.05,ESE,121,2.0,7.0,93,0.00,,,0.00,meteohub,2013-03-07 09:48:00,
2013-03-07 04:53:00,30.6,37.6,30.04,ESE,122,2.0,7.0,94,0.00,,,0.00,meteohub,2013-03-07 09:53:00,
2013-03-07 04:58:00,30.6,37.6,30.04,ESE,119,0.0,8.0,94,0.00,,,0.00,meteohub,2013-03-07 09:58:00,
2013-03-07 05:03:00,30.6,37.6,30.04,ESE,121,1.0,8.0,94,0.00,,,0.00,meteohub,2013-03-07 10:03:00,
2013-03-07 05:08:00,30.6,37.6,30.04,SSE,164,2.0,8.0,94,0.00,,,0.00,meteohub,2013-03-07 10:08:00,
2013-03-07 05:13:00,30.6,37.6,30.04,ESE,114,6.0,7.0,94,0.00,,,0.00,meteohub,2013-03-07 10:13:00,
2013-03-07 05:18:00,30.4,37.6,30.04,South,181,1.0,6.0,94,0.00,,,0.00,meteohub,2013-03-07 10:18:00,
2013-03-07 05:23:00,30.4,37.6,30.04,ESE,119,0.0,8.0,94,0.00,,,0.00,meteohub,2013-03-07 10:23:00,
2013-03-07 05:28:00,30.4,37.6,30.04,ENE,74,0.0,8.0,94,0.00,,,0.00,meteohub,2013-03-07 10:28:00,
2013-03-07 05:33:00,30.4,37.8,30.04,ESE,111,3.0,6.0,94,0.00,,,0.00,meteohub,2013-03-07 10:33:00,
2013-03-07 05:38:00,30.4,37.8,30.05,SE,130,0.0,6.0,94,0.00,,,0.00,meteohub,2013-03-07 10:38:00,
2013-03-07 05:43:00,30.4,37.8,30.05,SE,134,2.0,6.0,94,0.00,,,0.00,meteohub,2013-03-07 10:43:00,
2013-03-07 05:48:00,30.4,37.8,30.05,WSW,242,1.0,6.0,94,0.00,,,0.00,meteohub,2013-03-07 10:48:00,
2013-03-07 05:53:00,30.4,37.8,30.05,ESE,107,2.0,5.0,94,0.00,,,0.00,meteohub,2013-03-07 10:53:00,
2013-03-07 05:58:00,30.4,37.8,30.05,SSE,149,4.0,7.0,94,0.00,,,0.00,meteohub,2013-03-07 10:58:00,
2013-03-07 06:03:00,30.4,37.8,30.05,East,88,3.0,7.0,94,0.00,,,0.00,meteohub,2013-03-07 11:03:00,
2013-03-07 06:08:00,30.4,37.6,30.05,East,94,4.0,7.0,94,0.00,,,0.00,meteohub,2013-03-07 11:08:00,
2013-03-07 06:13:00,30.4,37.6,30.05,SE,134,0.0,7.0,94,0.00,,,0.00,meteohub,2013-03-07 11:13:00,
2013-03-07 06:18:00,30.4,37.6,30.06,SW,233,2.0,7.0,93,0.00,,,0.00,meteohub,2013-03-07 11:18:00,
2013-03-07 06:23:00,30.4,37.6,30.06,ESE,106,2.0,7.0,93,0.00,,,0.00,meteohub,2013-03-07 11:23:00,
2013-03-07 06:28:00,30.4,37.6,30.06,East,96,3.0,7.0,93,0.00,,,0.00,meteohub,2013-03-07 11:28:00,
2013-03-07 06:33:00,30.4,37.6,30.06,SE,132,6.0,7.0,93,0.00,,,0.00,meteohub,2013-03-07 11:33:00,
2013-03-07 06:38:00,30.4,37.6,30.06,South,175,6.0,8.0,93,0.00,,,0.00,meteohub,2013-03-07 11:38:00,
2013-03-07 06:43:00,30.4,37.6,30.06,SSE,153,1.0,8.0,93,0.00,,,0.00,meteohub,2013-03-07 11:43:00,
2013-03-07 06:48:00,30.6,37.6,30.06,SE,138,3.0,8.0,92,0.00,,,0.00,meteohub,2013-03-07 11:48:00,
2013-03-07 06:53:00,30.6,37.6,30.06,NW,306,8.0,8.0,92,0.00,,,0.00,meteohub,2013-03-07 11:53:00,
2013-03-07 06:58:00,30.6,37.6,30.06,ESE,110,4.0,7.0,92,0.00,,,0.00,meteohub,2013-03-07 11:58:00,
2013-03-07 07:04:00,30.6,37.6,30.06,NNW,327,2.0,8.0,92,0.00,,,0.00,meteohub,2013-03-07 12:04:00,
2013-03-07 07:09:00,30.6,37.6,30.06,SSE,147,2.0,8.0,92,0.00,,,0.00,meteohub,2013-03-07 12:09:00,
2013-03-07 07:14:00,30.6,37.6,30.06,SSE,152,2.0,7.0,92,0.00,,,0.00,meteohub,2013-03-07 12:14:00,
2013-03-07 07:19:00,30.6,37.6,30.06,SE,130,1.0,6.0,92,0.00,,,0.00,meteohub,2013-03-07 12:19:00,
2013-03-07 07:24:00,30.6,37.2,30.06,SE,145,0.0,6.0,92,0.00,,,0.00,meteohub,2013-03-07 12:24:00,
2013-03-07 07:29:00,30.6,37.6,30.06,ESE,104,1.0,6.0,91,0.00,,,0.00,meteohub,2013-03-07 12:29:00,
2013-03-07 07:34:00,30.6,37.6,30.06,SE,132,3.0,6.0,91,0.00,,,0.00,meteohub,2013-03-07 12:34:00,
2013-03-07 07:39:00,30.6,37.6,30.06,ESE,121,3.0,6.0,91,0.00,,,0.00,meteohub,2013-03-07 12:39:00,
2013-03-07 07:44:00,30.7,37.6,30.07,SE,129,4.0,6.0,91,0.00,,,0.00,meteohub,2013-03-07 12:44:00,
2013-03-07 07:49:00,30.7,37.6,30.06,South,186,1.0,6.0,91,0.00,,,0.00,meteohub,2013-03-07 12:49:00,
2013-03-07 07:54:00,30.7,37.8,30.07,NE,52,0.0,6.0,91,0.00,,,0.00,meteohub,2013-03-07 12:54:00,
2013-03-07 07:59:00,30.7,37.8,30.07,SE,144,0.0,6.0,91,0.00,,,0.00,meteohub,2013-03-07 12:59:00,
2013-03-07 08:04:00,30.9,37.8,30.07,SE,129,2.0,6.0,90,0.00,,,0.00,meteohub,2013-03-07 13:04:00,
2013-03-07 08:09:00,30.9,37.8,30.06,ENE,69,1.0,6.0,90,0.00,,,0.00,meteohub,2013-03-07 13:09:00,
2013-03-07 08:14:00,31.3,37.6,30.06,ESE,114,5.0,6.0,89,0.00,,,0.00,meteohub,2013-03-07 13:14:00,
2013-03-07 08:19:00,31.3,37.6,30.06,ESE,109,0.0,7.0,89,0.00,,,0.00,meteohub,2013-03-07 13:19:00,
2013-03-07 08:24:00,31.5,37.6,30.06,East,90,1.0,7.0,89,0.00,,,0.00,meteohub,2013-03-07 13:24:00,
2013-03-07 08:29:00,31.6,37.6,30.06,SE,140,5.0,7.0,88,0.00,,,0.00,meteohub,2013-03-07 13:29:00,
2013-03-07 08:34:00,31.6,37.6,30.06,SSE,168,5.0,7.0,88,0.00,,,0.00,meteohub,2013-03-07 13:34:00,
2013-03-07 08:39:00,31.8,37.6,30.06,SE,134,3.0,7.0,88,0.00,,,0.00,meteohub,2013-03-07 13:39:00,
2013-03-07 08:44:00,31.8,37.6,30.06,ESE,111,5.0,7.0,88,0.00,,,0.00,meteohub,2013-03-07 13:44:00,
2013-03-07 08:49:00,32.0,37.6,30.06,SSE,167,4.0,6.0,87,0.00,,,0.00,meteohub,2013-03-07 13:49:00,
2013-03-07 08:54:00,32.2,37.6,30.06,ESE,111,3.0,6.0,87,0.00,,,0.00,meteohub,2013-03-07 13:54:00,
2013-03-07 09:00:00,32.2,37.6,30.06,ESE,113,5.0,7.0,87,0.00,,,0.00,meteohub,2013-03-07 14:00:00,
2013-03-07 09:05:00,32.2,37.6,30.06,ESE,115,1.0,7.0,87,0.00,,,0.00,meteohub,2013-03-07 14:05:00,
2013-03-07 09:10:00,32.4,37.6,30.06,ESE,114,0.0,10.0,87,0.00,,,0.00,meteohub,2013-03-07 14:10:00,
2013-03-07 09:15:00,32.4,37.6,30.06,SSE,153,0.0,10.0,87,0.00,,,0.00,meteohub,2013-03-07 14:15:00,
2013-03-07 09:20:00,32.4,37.6,30.06,ESE,121,1.0,8.0,87,0.00,,,0.00,meteohub,2013-03-07 14:20:00,
2013-03-07 09:25:00,32.4,37.6,30.05,North,0,3.0,8.0,87,0.00,,,0.00,meteohub,2013-03-07 14:25:00,
2013-03-07 09:30:00,32.5,37.8,30.05,SE,125,0.0,8.0,88,0.00,,,0.00,meteohub,2013-03-07 14:30:00,
2013-03-07 09:35:00,32.5,37.8,30.05,ESE,115,4.0,8.0,88,0.00,,,0.00,meteohub,2013-03-07 14:35:00,
2013-03-07 09:40:00,32.5,37.8,30.05,ENE,69,0.0,8.0,88,0.00,,,0.00,meteohub,2013-03-07 14:40:00,
2013-03-07 09:45:00,32.7,37.8,30.05,SE,140,4.0,7.0,88,0.00,,,0.00,meteohub,2013-03-07 14:45:00,
2013-03-07 09:50:00,32.7,37.6,30.05,SSE,148,4.0,9.0,88,0.00,,,0.00,meteohub,2013-03-07 14:50:00,
2013-03-07 09:55:00,32.7,37.6,30.05,ESE,121,4.0,9.0,87,0.00,,,0.00,meteohub,2013-03-07 14:55:00,
2013-03-07 10:00:00,32.9,37.6,30.05,ENE,68,5.0,9.0,88,0.00,,,0.00,meteohub,2013-03-07 15:00:00,
2013-03-07 10:05:00,32.9,37.6,30.04,SE,134,0.0,9.0,88,0.00,,,0.00,meteohub,2013-03-07 15:05:00,
2013-03-07 10:10:00,33.1,37.8,30.04,SSE,151,4.0,9.0,88,0.00,,,0.00,meteohub,2013-03-07 15:10:00,
2013-03-07 10:15:00,33.1,37.8,30.05,SE,143,6.0,9.0,87,0.00,,,0.00,meteohub,2013-03-07 15:15:00,
2013-03-07 10:20:00,33.3,37.8,30.05,SE,130,6.0,9.0,87,0.00,,,0.00,meteohub,2013-03-07 15:20:00,
2013-03-07 10:25:00,33.3,37.8,30.05,ENE,69,5.0,11.0,87,0.00,,,0.00,meteohub,2013-03-07 15:25:00,
2013-03-07 10:30:00,33.3,37.6,30.05,SSE,153,2.0,11.0,86,0.00,,,0.00,meteohub,2013-03-07 15:30:00,
2013-03-07 10:35:00,33.4,37.6,30.05,ENE,71,2.0,11.0,87,0.00,,,0.00,meteohub,2013-03-07 15:35:00,
2013-03-07 10:40:00,33.6,37.6,30.05,SE,126,5.0,9.0,87,0.00,,,0.00,meteohub,2013-03-07 15:40:00,
2013-03-07 10:45:00,33.6,37.6,30.05,SSE,162,5.0,11.0,86,0.00,,,0.00,meteohub,2013-03-07 15:45:00,
2013-03-07 10:50:00,33.4,37.6,30.05,SSE,157,7.0,11.0,86,0.00,,,0.00,meteohub,2013-03-07 15:50:00,
2013-03-07 10:55:00,33.4,37.8,30.06,ESE,106,0.0,11.0,87,0.00,,,0.00,meteohub,2013-03-07 15:55:00,
2013-03-07 11:00:00,33.4,37.8,30.06,ESE,113,5.0,10.0,87,0.00,,,0.00,meteohub,2013-03-07 16:00:00,
2013-03-07 11:05:00,33.4,37.8,30.06,East,83,6.0,10.0,87,0.00,,,0.00,meteohub,2013-03-07 16:05:00,
2013-03-07 11:10:00,33.4,37.8,30.06,ESE,104,0.0,15.0,87,0.00,,,0.00,meteohub,2013-03-07 16:10:00,
2013-03-07 11:16:00,33.6,37.6,30.06,East,99,1.0,15.0,87,0.00,,,0.00,meteohub,2013-03-07 16:16:00,
2013-03-07 11:21:00,33.6,37.6,30.05,East,90,0.0,15.0,87,0.00,,,0.00,meteohub,2013-03-07 16:21:00,
2013-03-07 11:26:00,33.6,37.6,30.06,ESE,109,1.0,13.0,87,0.00,,,0.00,meteohub,2013-03-07 16:26:00,
2013-03-07 11:31:00,33.8,37.6,30.06,SE,130,5.0,13.0,87,0.00,,,0.00,meteohub,2013-03-07 16:31:00,
2013-03-07 11:36:00,33.6,37.6,30.06,SE,138,2.0,13.0,87,0.00,,,0.00,meteohub,2013-03-07 16:36:00,
2013-03-07 11:41:00,33.4,37.6,30.06,SE,138,7.0,9.0,87,0.00,,,0.00,meteohub,2013-03-07 16:41:00,
2013-03-07 11:46:00,33.4,37.8,30.06,ENE,62,1.0,9.0,88,0.00,,,0.00,meteohub,2013-03-07 16:46:00,
2013-03-07 11:51:00,33.3,37.6,30.06,East,88,5.0,7.0,89,0.00,,,0.00,meteohub,2013-03-07 16:51:00,
2013-03-07 11:56:00,33.3,37.6,30.06,ESE,119,0.0,7.0,89,0.00,,,0.00,meteohub,2013-03-07 16:56:00,
2013-03-07 12:01:00,33.3,37.6,30.06,ESE,113,0.0,7.0,90,0.00,,,0.00,meteohub,2013-03-07 17:01:00,
2013-03-07 12:06:00,33.3,37.6,30.06,ESE,103,0.0,7.0,90,0.00,,,0.00,meteohub,2013-03-07 17:06:00,
2013-03-07 12:11:00,33.3,37.6,30.06,South,179,1.0,8.0,91,0.00,,,0.00,meteohub,2013-03-07 17:11:00,
2013-03-07 12:16:00,33.3,37.6,30.06,SSE,161,2.0,8.0,91,0.00,,,0.00,meteohub,2013-03-07 17:16:00,
2013-03-07 12:21:00,33.1,37.6,30.06,SE,134,0.0,7.0,91,0.00,,,0.00,meteohub,2013-03-07 17:21:00,
2013-03-07 12:26:00,33.3,37.6,30.06,NE,36,1.0,7.0,91,0.00,,,0.00,meteohub,2013-03-07 17:26:00,
2013-03-07 12:31:00,33.1,37.6,30.05,SE,144,2.0,7.0,92,0.00,,,0.00,meteohub,2013-03-07 17:31:00,
2013-03-07 12:36:00,33.1,37.6,30.05,SE,136,2.0,7.0,92,0.00,,,0.00,meteohub,2013-03-07 17:36:00,
2013-03-07 12:41:00,33.1,37.6,30.05,South,179,5.0,7.0,92,0.00,,,0.00,meteohub,2013-03-07 17:41:00,
2013-03-07 12:46:00,33.1,37.6,30.05,ENE,70,5.0,9.0,92,0.00,,,0.00,meteohub,2013-03-07 17:46:00,
2013-03-07 12:51:00,33.1,37.6,30.06,SSE,157,3.0,9.0,92,0.00,,,0.00,meteohub,2013-03-07 17:51:00,
2013-03-07 12:56:00,33.1,37.6,30.06,North,0,2.0,9.0,92,0.00,,,0.00,meteohub,2013-03-07 17:56:00,
2013-03-07 13:01:00,33.1,37.6,30.05,East,94,0.0,8.0,92,0.00,,,0.00,meteohub,2013-03-07 18:01:00,
2013-03-07 13:06:00,33.3,37.6,30.05,SE,130,4.0,8.0,92,0.00,,,0.00,meteohub,2013-03-07 18:06:00,
2013-03-07 13:11:00,33.3,37.6,30.05,SE,138,0.0,9.0,92,0.00,,,0.00,meteohub,2013-03-07 18:11:00,
2013-03-07 13:16:00,33.1,37.6,30.05,NNE,32,1.0,9.0,92,0.00,,,0.00,meteohub,2013-03-07 18:16:00,
2013-03-07 13:21:00,33.1,37.6,30.05,ESE,114,3.0,8.0,92,0.00,,,0.00,meteohub,2013-03-07 18:21:00,
2013-03-07 13:26:00,33.1,37.6,30.05,SSE,163,4.0,6.0,92,0.00,,,0.00,meteohub,2013-03-07 18:26:00,
2013-03-07 13:31:00,33.1,37.6,30.05,SE,130,3.0,6.0,92,0.00,,,0.00,meteohub,2013-03-07 18:31:00,
2013-03-07 13:37:00,33.1,37.6,30.05,SSE,149,0.0,6.0,92,0.00,,,0.00,meteohub,2013-03-07 18:37:00,
2013-03-07 13:42:00,33.3,38.7,30.04,ESE,118,0.0,6.0,92,0.00,,,0.00,meteohub,2013-03-07 18:42:00,
2013-03-07 13:47:00,33.4,39.0,30.04,SE,142,0.0,6.0,92,0.00,,,0.00,meteohub,2013-03-07 18:47:00,
2013-03-07 13:52:00,33.4,39.4,30.04,NNW,348,4.0,7.0,92,0.00,,,0.00,meteohub,2013-03-07 18:52:00,
2013-03-07 13:57:00,33.6,39.7,30.04,ENE,68,0.0,7.0,92,0.00,,,0.00,meteohub,2013-03-07 18:57:00,
2013-03-07 14:02:00,33.6,40.1,30.05,East,90,1.0,7.0,92,0.00,,,0.00,meteohub,2013-03-07 19:02:00,
2013-03-07 14:07:00,33.6,40.1,30.04,SE,133,1.0,6.0,92,0.00,,,0.00,meteohub,2013-03-07 19:07:00,
2013-03-07 14:12:00,33.6,40.1,30.04,East,89,2.0,8.0,92,0.00,,,0.00,meteohub,2013-03-07 19:12:00,
2013-03-07 14:18:00,34.0,40.1,30.04,NNW,329,2.0,8.0,92,0.00,,,0.00,meteohub,2013-03-07 19:18:00,
2013-03-07 14:23:00,34.2,40.3,30.04,ENE,57,1.0,8.0,92,0.00,,,0.00,meteohub,2013-03-07 19:23:00,
2013-03-07 14:28:00,34.2,40.5,30.04,ESE,105,0.0,8.0,91,0.00,,,0.00,meteohub,2013-03-07 19:28:00,
2013-03-07 14:34:00,34.2,40.8,30.04,SE,126,2.0,7.0,91,0.00,,,0.00,meteohub,2013-03-07 19:34:00,
2013-03-07 14:39:00,34.2,40.8,30.04,East,98,0.0,7.0,91,0.00,,,0.00,meteohub,2013-03-07 19:39:00,
2013-03-07 14:44:00,34.2,39.9,30.04,East,96,2.0,7.0,92,0.00,,,0.00,meteohub,2013-03-07 19:44:00,
2013-03-07 14:49:00,34.0,39.9,30.04,ENE,78,2.0,7.0,92,0.00,,,0.00,meteohub,2013-03-07 19:49:00,
2013-03-07 14:54:00,33.8,41.0,30.04,ESE,118,0.0,6.0,92,0.00,,,0.00,meteohub,2013-03-07 19:54:00,
2013-03-07 14:59:00,33.8,41.2,30.04,SE,144,2.0,6.0,92,0.00,,,0.00,meteohub,2013-03-07 19:59:00,
2013-03-07 15:04:00,33.6,41.4,30.04,East,94,1.0,6.0,92,0.00,,,0.00,meteohub,2013-03-07 20:04:00,
2013-03-07 15:09:00,33.6,41.5,30.05,ENE,69,2.0,7.0,92,0.00,,,0.00,meteohub,2013-03-07 20:09:00,
2013-03-07 15:14:00,33.6,40.6,30.05,SE,125,0.0,7.0,92,0.00,,,0.00,meteohub,2013-03-07 20:14:00,
2013-03-07 15:19:00,33.4,40.6,30.05,SE,125,1.0,7.0,93,0.00,,,0.00,meteohub,2013-03-07 20:19:00,
2013-03-07 15:24:00,33.4,40.6,30.04,North,0,0.0,9.0,93,0.00,,,0.00,meteohub,2013-03-07 20:24:00,
2013-03-07 15:29:00,33.4,40.6,30.04,SE,125,1.0,9.0,93,0.00,,,0.00,meteohub,2013-03-07 20:29:00,
2013-03-07 15:34:00,33.3,40.8,30.04,SSE,150,1.0,9.0,93,0.00,,,0.00,meteohub,2013-03-07 20:34:00,
2013-03-07 15:39:00,33.3,41.0,30.05,ESE,121,0.0,7.0,93,0.00,,,0.00,meteohub,2013-03-07 20:39:00,
2013-03-07 15:44:00,33.3,41.0,30.05,SE,141,0.0,7.0,93,0.00,,,0.00,meteohub,2013-03-07 20:44:00,
2013-03-07 15:49:00,33.3,41.0,30.05,ESE,118,0.0,7.0,93,0.00,,,0.00,meteohub,2013-03-07 20:49:00,
2013-03-07 15:54:00,33.1,41.0,30.05,WSW,257,1.0,5.0,93,0.00,,,0.00,meteohub,2013-03-07 20:54:00,
2013-03-07 15:59:00,33.1,41.0,30.05,ESE,107,0.0,5.0,94,0.00,,,0.00,meteohub,2013-03-07 20:59:00,
2013-03-07 16:04:00,32.9,41.0,30.05,South,180,3.0,5.0,93,0.00,,,0.00,meteohub,2013-03-07 21:04:00,
2013-03-07 16:09:00,32.7,41.0,30.05,SSE,156,6.0,6.0,94,0.00,,,0.00,meteohub,2013-03-07 21:09:00,
2013-03-07 16:14:00,32.7,41.0,30.05,ESE,111,4.0,6.0,94,0.00,,,0.00,meteohub,2013-03-07 21:14:00,
2013-03-07 16:19:00,32.5,41.0,30.05,ESE,109,0.0,7.0,94,0.00,,,0.00,meteohub,2013-03-07 21:19:00,
2013-03-07 16:24:00,32.5,41.2,30.06,SE,140,1.0,9.0,94,0.00,,,0.00,meteohub,2013-03-07 21:24:00,
2013-03-07 16:29:00,32.4,41.2,30.06,ESE,119,0.0,9.0,94,0.00,,,0.00,meteohub,2013-03-07 21:29:00,
2013-03-07 16:34:00,32.4,41.2,30.06,NE,44,3.0,9.0,94,0.00,,,0.00,meteohub,2013-03-07 21:34:00,
2013-03-07 16:39:00,32.4,41.0,30.06,ESE,113,4.0,6.0,94,0.00,,,0.00,meteohub,2013-03-07 21:39:00,
2013-03-07 16:44:00,32.4,41.0,30.05,SE,126,0.0,5.0,94,0.00,,,0.00,meteohub,2013-03-07 21:44:00,
2013-03-07 16:49:00,32.2,41.0,30.05,ESE,109,0.0,6.0,94,0.00,,,0.00,meteohub,2013-03-07 21:49:00,
2013-03-07 16:54:00,32.2,41.0,30.06,ESE,102,1.0,6.0,94,0.00,,,0.00,meteohub,2013-03-07 21:54:00,
2013-03-07 16:59:00,32.2,41.2,30.06,ESE,121,2.0,6.0,94,0.00,,,0.00,meteohub,2013-03-07 21:59:00,
2013-03-07 17:05:00,32.2,41.4,30.06,NNE,28,0.0,7.0,94,0.00,,,0.00,meteohub,2013-03-07 22:05:00,
2013-03-07 17:10:00,32.2,41.4,30.06,NNE,28,1.0,7.0,94,0.00,,,0.00,meteohub,2013-03-07 22:10:00,
2013-03-07 17:15:00,32.2,41.4,30.06,SSW,196,0.0,5.0,95,0.00,,,0.00,meteohub,2013-03-07 22:15:00,
2013-03-07 17:20:00,32.0,41.2,30.06,SE,144,1.0,5.0,95,0.00,,,0.00,meteohub,2013-03-07 22:20:00,
2013-03-07 17:25:00,32.0,41.2,30.06,ESE,121,5.0,6.0,95,0.00,,,0.00,meteohub,2013-03-07 22:25:00,
2013-03-07 17:30:00,31.8,41.2,30.06,North,0,0.0,6.0,95,0.00,,,0.00,meteohub,2013-03-07 22:30:00,
2013-03-07 17:35:00,31.8,41.2,30.06,NNE,24,0.0,5.0,94,0.00,,,0.00,meteohub,2013-03-07 22:35:00,
2013-03-07 17:40:00,31.6,41.4,30.06,ENE,68,1.0,6.0,95,0.00,,,0.00,meteohub,2013-03-07 22:40:00,
2013-03-07 17:45:00,31.6,41.4,30.06,East,101,4.0,6.0,95,0.00,,,0.00,meteohub,2013-03-07 22:45:00,
2013-03-07 17:50:00,31.6,41.5,30.06,SE,138,0.0,5.0,95,0.00,,,0.00,meteohub,2013-03-07 22:50:00,
2013-03-07 17:55:00,31.6,41.5,30.06,NNE,21,0.0,5.0,95,0.00,,,0.00,meteohub,2013-03-07 22:55:00,
2013-03-07 18:00:00,31.6,41.5,30.06,SE,126,2.0,4.0,95,0.00,,,0.00,meteohub,2013-03-07 23:00:00,
2013-03-07 18:05:00,31.6,41.4,30.06,SE,138,2.0,4.0,95,0.00,,,0.00,meteohub,2013-03-07 23:05:00,
2013-03-07 18:11:00,31.6,41.4,30.06,ENE,71,2.0,4.0,95,0.00,,,0.00,meteohub,2013-03-07 23:11:00,
2013-03-07 18:16:00,31.5,41.4,30.06,SSE,164,1.0,5.0,95,0.00,,,0.00,meteohub,2013-03-07 23:16:00,
2013-03-07 18:21:00,31.5,41.4,30.06,ESE,108,4.0,5.0,95,0.00,,,0.00,meteohub,2013-03-07 23:21:00,
2013-03-07 18:26:00,31.5,41.4,30.06,ESE,115,0.0,7.0,95,0.00,,,0.00,meteohub,2013-03-07 23:26:00,
2013-03-07 18:31:00,31.5,41.4,30.06,North,11,1.0,7.0,95,0.00,,,0.00,meteohub,2013-03-07 23:31:00,
2013-03-07 18:36:00,31.5,41.5,30.06,NNW,340,1.0,7.0,95,0.00,,,0.00,meteohub,2013-03-07 23:36:00,
2013-03-07 18:41:00,31.5,41.7,30.06,SE,125,0.0,4.0,95,0.00,,,0.00,meteohub,2013-03-07 23:41:00,
2013-03-07 18:46:00,31.3,41.7,30.06,East,84,1.0,4.0,95,0.00,,,0.00,meteohub,2013-03-07 23:46:00,
2013-03-07 18:51:00,31.3,41.7,30.06,SSE,147,2.0,4.0,95,0.00,,,0.00,meteohub,2013-03-07 23:51:00,
2013-03-07 18:56:00,31.3,41.7,30.06,SE,136,1.0,5.0,95,0.00,,,0.00,meteohub,2013-03-07 23:56:00,
2013-03-07 19:01:00,31.3,41.5,30.06,ENE,78,0.0,5.0,95,0.00,,,0.00,meteohub,2013-03-08 00:01:00,
2013-03-07 19:06:00,31.3,41.5,30.06,NE,46,1.0,6.0,95,0.00,,,0.00,meteohub,2013-03-08 00:06:00,
2013-03-07 19:11:00,31.3,41.5,30.06,SE,124,0.0,6.0,95,0.00,,,0.00,meteohub,2013-03-08 00:11:00,
2013-03-07 19:16:00,31.3,41.4,30.05,SE,146,2.0,6.0,95,0.00,,,0.00,meteohub,2013-03-08 00:16:00,
2013-03-07 19:21:00,31.3,41.4,30.05,SE,136,0.0,5.0,95,0.00,,,0.00,meteohub,2013-03-08 00:21:00,
2013-03-07 19:26:00,31.3,41.4,30.05,ENE,65,0.0,5.0,95,0.00,,,0.00,meteohub,2013-03-08 00:26:00,
2013-03-07 19:31:00,31.3,41.4,30.05,ENE,60,1.0,5.0,95,0.00,,,0.00,meteohub,2013-03-08 00:31:00,
2013-03-07 19:36:00,31.3,41.5,30.06,SE,142,0.0,5.0,95,0.00,,,0.00,meteohub,2013-03-08 00:36:00,
2013-03-07 19:41:00,31.3,41.5,30.06,East,94,0.0,5.0,95,0.00,,,0.00,meteohub,2013-03-08 00:41:00,
2013-03-07 19:47:00,31.3,41.5,30.06,SE,142,1.0,5.0,95,0.00,,,0.00,meteohub,2013-03-08 00:47:00,
2013-03-07 19:52:00,31.1,41.5,30.06,ESE,109,0.0,5.0,95,0.00,,,0.00,meteohub,2013-03-08 00:52:00,
2013-03-07 19:57:00,31.1,41.5,30.05,South,180,1.0,5.0,95,0.00,,,0.00,meteohub,2013-03-08 00:57:00,
2013-03-07 20:02:00,31.1,41.5,30.06,SE,140,0.0,5.0,95,0.00,,,0.00,meteohub,2013-03-08 01:02:00,
2013-03-07 20:07:00,31.1,41.4,30.05,SSW,205,2.0,4.0,95,0.00,,,0.00,meteohub,2013-03-08 01:07:00,
2013-03-07 20:12:00,30.9,41.4,30.05,SE,140,1.0,6.0,95,0.00,,,0.00,meteohub,2013-03-08 01:12:00,
2013-03-07 20:17:00,30.9,41.4,30.05,NW,323,0.0,6.0,95,0.00,,,0.00,meteohub,2013-03-08 01:17:00,
2013-03-07 20:22:00,30.9,41.2,30.05,South,183,0.0,6.0,95,0.00,,,0.00,meteohub,2013-03-08 01:22:00,
2013-03-07 20:27:00,30.9,41.2,30.05,South,186,0.0,3.0,95,0.00,,,0.00,meteohub,2013-03-08 01:27:00,
2013-03-07 20:32:00,30.9,41.4,30.05,NE,53,0.0,2.0,95,0.00,,,0.00,meteohub,2013-03-08 01:32:00,
2013-03-07 20:37:00,30.9,41.5,30.05,SSE,163,0.0,4.0,95,0.00,,,0.00,meteohub,2013-03-08 01:37:00,
2013-03-07 20:42:00,30.9,41.5,30.05,ESE,111,0.0,5.0,95,0.00,,,0.00,meteohub,2013-03-08 01:42:00,
2013-03-07 20:47:00,30.7,41.5,30.06,SE,140,1.0,5.0,95,0.00,,,0.00,meteohub,2013-03-08 01:47:00,
2013-03-07 20:52:00,30.7,41.4,30.05,East,95,0.0,5.0,95,0.00,,,0.00,meteohub,2013-03-08 01:52:00,
2013-03-07 20:57:00,30.7,41.4,30.05,ESE,109,0.0,5.0,95,0.00,,,0.00,meteohub,2013-03-08 01:57:00,
2013-03-07 21:02:00,30.7,41.4,30.05,ENE,67,0.0,4.0,95,0.00,,,0.00,meteohub,2013-03-08 02:02:00,
2013-03-07 21:07:00,30.7,41.4,30.05,SSE,155,1.0,3.0,95,0.00,,,0.00,meteohub,2013-03-08 02:07:00,
2013-03-07 21:12:00,30.7,41.2,30.05,East,96,0.0,4.0,95,0.00,,,0.00,meteohub,2013-03-08 02:12:00,
2013-03-07 21:17:00,30.7,41.2,30.05,NNE,18,0.0,4.0,95,0.00,,,0.00,meteohub,2013-03-08 02:17:00,
2013-03-07 21:22:00,30.7,41.2,30.04,SE,138,0.0,4.0,95,0.00,,,0.00,meteohub,2013-03-08 02:22:00,
2013-03-07 21:27:00,30.7,41.0,30.04,ESE,121,0.0,4.0,95,0.00,,,0.00,meteohub,2013-03-08 02:27:00,
2013-03-07 21:32:00,30.6,41.0,30.04,East,86,0.0,3.0,95,0.00,,,0.00,meteohub,2013-03-08 02:32:00,
2013-03-07 21:37:00,30.6,41.0,30.04,ESE,111,1.0,3.0,95,0.00,,,0.00,meteohub,2013-03-08 02:37:00,
2013-03-07 21:42:00,30.6,40.8,30.04,ENE,69,1.0,4.0,95,0.00,,,0.00,meteohub,2013-03-08 02:42:00,
2013-03-07 21:47:00,30.6,40.8,30.04,ESE,121,0.0,4.0,95,0.00,,,0.00,meteohub,2013-03-08 02:47:00,
2013-03-07 21:52:00,30.6,39.6,30.04,ESE,109,0.0,4.0,95,0.00,,,0.00,meteohub,2013-03-08 02:52:00,
2013-03-07 21:57:00,30.6,39.6,30.04,SE,137,2.0,3.0,95,0.00,,,0.00,meteohub,2013-03-08 02:57:00,
2013-03-07 22:02:00,30.6,39.6,30.03,SE,146,0.0,4.0,95,0.00,,,0.00,meteohub,2013-03-08 03:02:00,
2013-03-07 22:07:00,30.6,39.4,30.03,SE,133,0.0,4.0,95,0.00,,,0.00,meteohub,2013-03-08 03:07:00,
2013-03-07 22:12:00,30.6,39.2,30.03,SE,134,2.0,4.0,95,0.00,,,0.00,meteohub,2013-03-08 03:12:00,
2013-03-07 22:17:00,30.6,39.2,30.03,ESE,122,1.0,5.0,95,0.00,,,0.00,meteohub,2013-03-08 03:17:00,
2013-03-07 22:22:00,30.6,39.0,30.02,WSW,249,0.0,5.0,95,0.00,,,0.00,meteohub,2013-03-08 03:22:00,
2013-03-07 22:27:00,30.6,39.0,30.02,ESE,117,1.0,5.0,95,0.00,,,0.00,meteohub,2013-03-08 03:27:00,
2013-03-07 22:33:00,30.6,38.8,30.02,SSE,154,0.0,4.0,95,0.00,,,0.00,meteohub,2013-03-08 03:33:00,
2013-03-07 22:38:00,30.6,38.8,30.02,ESE,105,0.0,5.0,95,0.00,,,0.00,meteohub,2013-03-08 03:38:00,
2013-03-07 22:43:00,30.6,38.7,30.02,SE,129,0.0,5.0,95,0.00,,,0.00,meteohub,2013-03-08 03:43:00,
2013-03-07 22:48:00,30.6,38.7,30.03,SSE,152,0.0,5.0,95,0.00,,,0.00,meteohub,2013-03-08 03:48:00,
2013-03-07 22:53:00,30.6,38.7,30.02,East,90,0.0,5.0,95,0.00,,,0.00,meteohub,2013-03-08 03:53:00,
2013-03-07 22:58:00,30.4,38.7,30.02,SSE,150,0.0,5.0,95,0.00,,,0.00,meteohub,2013-03-08 03:58:00,
2013-03-07 23:03:00,30.4,38.5,30.02,SSE,157,0.0,3.0,95,0.00,,,0.00,meteohub,2013-03-08 04:03:00,
2013-03-07 23:08:00,30.4,38.5,30.02,South,175,0.0,2.0,95,0.00,,,0.00,meteohub,2013-03-08 04:08:00,
2013-03-07 23:13:00,30.4,38.3,30.02,South,175,0.0,2.0,95,0.00,,,0.00,meteohub,2013-03-08 04:13:00,
2013-03-07 23:18:00,30.4,38.3,30.02,SSE,159,0.0,0.0,95,0.00,,,0.00,meteohub,2013-03-08 04:18:00,
2013-03-07 23:23:00,30.4,38.1,30.02,SE,134,0.0,0.0,95,0.00,,,0.00,meteohub,2013-03-08 04:23:00,
2013-03-07 23:28:00,30.4,38.1,30.02,SE,139,0.0,0.0,95,0.00,,,0.00,meteohub,2013-03-08 04:28:00,
2013-03-07 23:33:00,30.4,38.1,30.02,SE,139,0.0,0.0,95,0.00,,,0.00,meteohub,2013-03-08 04:33:00,
2013-03-07 23:38:00,30.4,38.1,30.02,North,355,0.0,0.0,95,0.00,,,0.00,meteohub,2013-03-08 04:38:00,
2013-03-07 23:43:00,30.4,37.9,30.02,ENE,57,0.0,0.0,95,0.00,,,0.00,meteohub,2013-03-08 04:43:00,
2013-03-07 23:48:00,30.4,37.9,30.02,East,91,0.0,0.0,95,0.00,,,0.00,meteohub,2013-03-08 04:48:00,
2013-03-07 23:53:00,30.2,37.9,30.01,SE,132,0.0,0.0,95,0.00,,,0.00,meteohub,2013-03-08 04:53:00,
2013-03-07 23:58:00,30.4,37.8,30.01,NNE,28,0.0,0.0,95,0.00,,,0.00,meteohub,2013-03-08 04:58:00,